Tracking 18980 objects as of 21-Feb-2018
HD Live streaming from Space Station
objects crossing your sky now

FENGYUN 1C DEB

Track FENGYUN 1C DEB now!
10-day predictions


NORAD ID: 29801
Int'l Code: 1999-025CT
Perigee: 710.5 km
Apogee: 863.4 km
Inclination: 98.9 °
Period: 100.4 minutes
Semi major axis: 7157 km
RCS: 0.105 m2 (medium)
Launch date: May 10, 1999
Source: People's Republic of China (PRC)
Launch site: Taiyaun Space Center, China (TSC)

Note: This is SATELLITE DEBRIS
aabbcc
Your satellite tracking list
Your tracking list is empty




NASA's NSSDC Master Catalog

Two Line Element Set (TLE):
1 29801U 99025CT  18051.93549281 +.00000047 +00000-0 +32374-4 0  9995
2 29801 098.8618 189.2437 0106776 348.3062 122.1423 14.33568334580647
Source of the keplerian elements: AFSPC